Date String (YYYY-MM-DD hh:mm:ss) UTC,Instrument flags,absolute air pressure of the measurement (hPa),sample flow rate (lpm),inlet stack bypass flow (lpm),air temperature of the measurement (°C),ambient temperature measured by the external sensor (°C),aerosol sample conditioner tube jacket temperature (°C),OPC LED temperature (°C),internal box temperature (°C),relative humidity of the measurement (%),span deviation,mass concentration of particles derived from Lorenz-Mie calculation of OPC scattering (μg/m³),mass concentration of particles derived from Lorenz-Mie calculation of OPC scattering (μg/m³),mass concentration of particles derived from Lorenz-Mie calculation of OPC scattering (μg/m³)
DateTimeUTC,F1_M11,P_M11,Q1_M11,Q2_M11,T1_M11,T2_M11,T3_M11,T4_M11,T5_M11,U1_M11,ZSPAN_M11,X0_M11,X2_M11,X1_M11
2023-07-14 16:00:00,SystemResetWarning,0834.1,4.99,000.00,029.7,026.8,000.0,037.9,030.7,33.6,-001.4,0022.59,0007.75,0006.34
2023-07-14 16:01:00,SystemResetWarning,0834.1,5.00,000.00,029.7,027.1,000.0,037.9,030.8,34.1,-001.8,0023.25,0007.93,0006.45
2023-07-14 16:02:00,SystemResetWarning,0834.1,4.99,000.00,029.7,027.4,000.0,037.9,030.8,34.2,-002.0,0025.67,0008.06,0006.56
2023-07-14 16:03:00,SystemResetWarning,0834.2,5.00,000.00,029.8,027.6,000.0,038.0,030.9,33.7,-001.9,0026.05,0008.20,0006.67
2023-07-14 16:04:00,SystemResetWarning,0834.4,5.00,000.00,029.8,027.8,000.0,038.0,031.0,33.3,-001.7,0026.06,0008.37,0006.79
2023-07-14 16:05:00,SystemResetWarning,0834.4,4.98,000.00,029.8,027.0,000.0,037.9,030.9,33.5,-001.5,0026.18,0008.50,0006.90
2023-07-14 16:06:00,SystemResetWarning,0834.3,5.00,000.00,029.7,025.4,000.0,037.8,030.7,33.8,-001.5,0027.28,0008.66,0006.99
2023-07-14 16:07:00,SystemResetWarning,0834.2,5.01,000.00,029.6,024.8,000.0,037.7,030.5,34.3,-001.4,0027.10,0008.68,0007.01
2023-07-14 16:08:00,SystemResetWarning,0834.3,5.01,000.00,029.5,025.0,000.0,037.7,030.3,34.5,-001.4,0026.64,0008.78,0007.04
2023-07-14 16:09:00,SystemResetWarning,0834.2,4.98,000.00,029.5,025.4,000.0,037.7,030.3,35.3,-000.8,0025.24,0008.85,0007.07
2023-07-14 16:10:00,SystemResetWarning,0834.6,5.03,000.00,029.6,025.9,000.0,037.7,030.5,34.3,-001.2,0026.95,0008.91,0007.12
2023-07-14 16:11:00,SystemResetWarning,0834.5,4.96,000.00,029.7,026.3,000.0,037.8,030.6,33.5,-001.2,0027.68,0008.96,0007.16
2023-07-14 16:12:00,SystemResetWarning,0834.3,5.02,000.00,029.8,026.7,000.0,037.8,030.7,33.7,-001.0,0028.19,0008.99,0007.20
2023-07-14 16:13:00,SystemResetWarning,0834.4,4.99,000.00,029.9,027.1,000.0,037.8,030.8,33.3,-000.9,0025.66,0009.05,0007.24
2023-07-14 16:14:00,SystemResetWarning,0834.2,4.99,000.00,029.9,027.3,000.0,037.9,030.8,33.2,-001.0,0025.23,0009.04,0007.25
2023-07-14 16:15:00,SystemResetWarning,0834.5,5.00,000.00,030.0,027.6,000.0,037.9,030.9,33.1,-001.1,0024.32,0008.98,0007.27
2023-07-14 16:16:00,SystemResetWarning,0834.3,5.00,000.00,030.0,027.2,000.0,037.9,030.9,33.0,-001.1,0023.48,0009.02,0007.29
2023-07-14 16:17:00,SystemResetWarning,0834.4,4.99,000.00,030.0,025.6,000.0,037.8,030.7,32.7,-001.0,0022.87,0008.99,0007.30
2023-07-14 16:18:00,SystemResetWarning,0834.6,5.01,000.00,029.9,024.8,000.0,037.7,030.5,32.9,-000.8,0023.13,0009.01,0007.32
2023-07-14 16:19:00,SystemResetWarning,0834.4,5.01,000.00,029.8,024.9,000.0,037.7,030.3,33.2,-000.6,0023.69,0008.95,0007.33
2023-07-14 16:20:00,SystemResetWarning,0834.3,5.01,000.00,029.7,025.3,000.0,037.8,030.3,33.3,-001.1,0023.79,0008.89,0007.30
2023-07-14 16:21:00,SystemResetWarning,0834.3,4.99,000.00,029.7,025.7,000.0,037.8,030.4,34.6,-000.9,0022.20,0008.86,0007.28
2023-07-14 16:22:00,SystemResetWarning,0834.6,5.00,000.00,029.6,026.2,000.0,037.9,030.5,33.8,-001.1,0021.90,0008.81,0007.26
2023-07-14 16:23:00,SystemResetWarning,0834.5,5.00,000.00,029.6,026.6,000.0,037.9,030.6,34.2,-001.4,0020.75,0008.76,0007.23
2023-07-14 16:24:00,SystemResetWarning,0834.3,4.99,000.00,029.6,027.0,000.0,037.9,030.7,34.0,-001.2,0020.71,0008.71,0007.21
2023-07-14 16:25:00,SystemResetWarning,0834.3,4.99,000.00,029.7,027.2,000.0,037.9,030.7,33.5,-001.4,0021.19,0008.70,0007.19
2023-07-14 16:26:00,SystemResetWarning,0834.3,5.00,000.00,029.7,027.5,000.0,037.9,030.8,33.3,-001.5,0021.92,0008.70,0007.18
2023-07-14 16:27:00,SystemResetWarning,0834.4,5.00,000.00,029.7,027.7,000.0,037.9,030.9,33.8,-001.6,0022.34,0008.68,0007.16
2023-07-14 16:28:00,SystemResetWarning,0834.3,4.99,000.00,029.7,026.8,000.0,037.8,030.8,34.0,-001.3,0022.51,0008.66,0007.13
2023-07-14 16:29:00,SystemResetWarning,0834.3,5.01,000.00,029.7,025.3,000.0,037.7,030.5,33.9,-001.6,0022.07,0008.60,0007.10
2023-07-14 16:30:00,SystemResetWarning,0834.4,5.01,000.00,029.6,024.8,000.0,037.6,030.4,33.6,-001.7,0021.55,0008.62,0007.08
2023-07-14 16:31:00,SystemResetWarning,0834.4,5.01,000.00,029.4,025.0,000.0,037.7,030.2,33.6,-001.3,0021.27,0008.64,0007.09
2023-07-14 16:32:00,SystemResetWarning,0834.4,4.99,000.00,029.4,025.5,000.0,037.7,030.3,34.3,-000.8,0020.83,0008.62,0007.09
2023-07-14 16:33:00,SystemResetWarning,0834.4,5.00,000.00,029.3,025.9,000.0,037.7,030.4,33.9,-000.3,0019.76,0008.56,0007.08
2023-07-14 16:34:00,SystemResetWarning,0834.4,5.00,000.00,029.3,026.3,000.0,037.7,030.4,34.1,0000.1,0021.18,0008.52,0007.06
2023-07-14 16:35:00,SystemResetWarning,0834.4,5.00,000.00,029.3,026.7,000.0,037.7,030.5,34.1,0000.4,0021.89,0008.49,0007.05
2023-07-14 16:36:00,SystemResetWarning,0834.5,5.00,000.00,029.4,027.0,000.0,037.7,030.6,34.3,0000.9,0022.65,0008.47,0007.02
2023-07-14 16:37:00,SystemResetWarning,0834.5,5.00,000.00,029.4,027.3,000.0,037.7,030.7,34.0,0001.3,0022.16,0008.45,0007.00
2023-07-14 16:38:00,SystemResetWarning,0834.5,5.00,000.00,029.4,027.5,000.0,037.7,030.7,34.1,0001.5,0021.94,0008.46,0007.00
2023-07-14 16:39:00,SystemResetWarning,0834.5,4.99,000.00,029.4,027.0,000.0,037.7,030.7,33.8,0001.4,0021.79,0008.45,0007.01
2023-07-14 16:40:00,SystemResetWarning,0834.5,5.00,000.00,029.4,025.4,000.0,037.6,030.4,33.8,0001.4,0021.76,0008.50,0007.01
2023-07-14 16:41:00,SystemResetWarning,0834.5,5.02,000.00,029.3,024.7,000.0,037.5,030.2,33.8,0001.0,0021.93,0008.48,0007.01
2023-07-14 16:42:00,SystemResetWarning,0834.4,5.00,000.00,029.1,024.8,000.0,037.4,030.0,34.0,0000.6,0021.15,0008.49,0007.02
2023-07-14 16:43:00,SystemResetWarning,0834.4,5.00,000.00,029.0,025.2,000.0,037.5,030.0,33.9,0000.5,0020.81,0008.49,0007.03
2023-07-14 16:44:00,SystemResetWarning,0834.5,5.01,000.00,029.0,025.7,000.0,037.5,030.2,34.1,0000.4,0020.07,0008.54,0007.04
2023-07-14 16:45:00,SystemResetWarning,0834.5,4.99,000.00,029.0,026.1,000.0,037.5,030.3,33.8,0000.3,0018.10,0008.54,0007.06
2023-07-14 16:46:00,SystemResetWarning,0834.6,5.00,000.00,029.0,026.5,000.0,037.5,030.3,34.0,-000.3,0017.64,0008.51,0007.05
2023-07-14 16:47:00,SystemResetWarning,0834.9,5.00,000.00,029.1,026.9,000.0,037.5,030.4,34.1,-000.2,0017.43,0008.52,0007.07
2023-07-14 16:48:00,SystemResetWarning,0834.9,5.00,000.00,029.1,027.1,000.0,037.5,030.5,34.7,0000.1,0018.10,0008.50,0007.08
2023-07-14 16:49:00,SystemResetWarning,0834.7,5.01,000.00,029.2,027.4,000.0,037.5,030.6,33.5,-000.1,0017.81,0008.40,0007.06
2023-07-14 16:50:00,SystemResetWarning,0834.6,5.00,000.00,029.2,027.6,000.0,037.5,030.7,33.4,0000.1,0017.24,0008.39,0007.06
2023-07-14 16:51:00,SystemResetWarning,0835.0,4.98,000.00,029.3,026.6,000.0,037.4,030.6,33.9,0000.2,0017.13,0008.33,0007.06
2023-07-14 16:52:00,SystemResetWarning,0835.0,5.01,000.00,029.2,025.1,000.0,037.3,030.4,34.4,0000.7,0016.78,0008.25,0007.05
2023-07-14 16:53:00,SystemResetWarning,0834.9,5.01,000.00,029.1,024.7,000.0,037.2,030.2,33.6,0001.0,0016.85,0008.20,0007.04
2023-07-14 16:54:00,SystemResetWarning,0834.8,4.99,000.00,029.0,025.0,000.0,037.3,030.0,34.4,0001.1,0016.96,0008.20,0007.03
2023-07-14 16:55:00,SystemResetWarning,0835.0,4.99,000.00,029.0,025.4,000.0,037.3,030.0,34.5,0001.1,0017.30,0008.21,0007.02
2023-07-14 16:56:00,SystemResetWarning,0835.0,5.00,000.00,029.0,025.8,000.0,037.3,030.2,34.1,0000.7,0017.17,0008.17,0007.01
2023-07-14 16:57:00,SystemResetWarning,0834.8,5.01,000.00,029.0,026.3,000.0,037.4,030.3,33.6,0000.9,0017.21,0008.17,0007.01
2023-07-14 16:58:00,SystemResetWarning,0834.9,5.01,000.00,029.0,026.6,000.0,037.4,030.3,33.9,0000.8,0016.93,0008.15,0006.99
2023-07-14 16:59:00,SystemResetWarning,0834.9,4.99,000.00,029.0,026.9,000.0,037.4,030.4,34.1,0000.5,0016.31,0008.18,0006.99
